PST,Max TemperatureF,Mean TemperatureF,Min TemperatureF,Max Dew PointF,MeanDew PointF,Min DewpointF,Max Humidity, Mean Humidity, Min Humidity, Max Sea Level PressureIn, Mean Sea Level PressureIn, Min Sea Level PressureIn, Max VisibilityMiles, Mean VisibilityMiles, Min VisibilityMiles, Max Wind SpeedMPH, Mean Wind SpeedMPH, Max Gust SpeedMPH,PrecipitationIn, CloudCover, Events, WindDirDegrees
2013-2-1,33,27,21,32,29,21,100,100,93,30.51,30.36,30.17,10,2,0,12,5,,0.00,3,Fog-Rain,122
2013-2-2,32,26,19,32,24,19,100,100,93,30.54,30.43,30.29,10,2,0,9,3,,0.00,3,Fog-Snow,20
2013-2-3,32,29,26,33,31,27,100,100,95,30.27,30.20,30.12,10,1,0,6,1,,0.00,8,Fog-Rain,197
2013-2-4,36,32,28,34,31,27,100,99,87,30.16,30.04,29.95,10,3,0,12,6,,0.00,4,Fog,149
2013-2-5,37,32,26,36,31,25,100,95,81,29.99,29.85,29.79,10,6,0,15,6,,0.00,4,Fog-Rain,137
2013-2-6,39,36,32,33,32,30,100,92,75,30.09,29.98,29.88,10,10,10,20,11,23,0.00,4,,188
2013-2-7,40,36,31,34,32,30,100,90,75,30.06,29.95,29.87,10,10,10,12,7,,0.01,7,Rain-Snow,194
2013-2-8,38,32,26,32,31,26,100,95,80,30.17,30.07,29.99,10,9,2,9,4,,0.00,6,Rain-Snow,232
2013-2-9,32,26,19,30,26,19,100,98,85,30.25,30.07,30.01,10,4,0,8,4,,0.00,3,Fog-Rain,211
2013-2-10,32,26,19,30,25,19,100,96,86,30.33,30.21,30.15,10,6,0,6,3,,0.00,5,Fog-Snow,52
2013-2-11,37,28,20,32,27,19,100,94,73,30.26,30.18,30.14,10,8,1,9,3,,0.00,4,Snow,86
2013-2-12,41,34,28,36,32,28,100,92,76,30.33,30.22,30.10,10,9,1,16,7,24,0.00,7,Snow,202
2013-2-13,41,34,26,34,30,23,97,83,61,30.38,30.20,30.10,10,10,10,22,11,28,0.00,2,,234
2013-2-14,39,32,24,32,27,23,100,83,65,30.56,30.44,30.31,10,10,10,8,4,,0.00,3,,212
2013-2-15,46,35,24,35,29,23,100,88,63,30.58,30.46,30.24,10,10,10,8,3,,0.00,0,,46
2013-2-16,42,34,26,39,33,25,100,87,76,30.27,30.02,29.89,10,10,9,16,9,,0.00,5,Rain,213
2013-2-17,41,34,28,30,27,23,93,72,57,30.13,30.04,29.95,10,10,3,16,11,,0.00,3,Snow,241
2013-2-18,39,31,23,29,26,22,93,79,57,30.12,29.95,29.74,10,10,10,15,6,,0.00,4,,94
2013-2-19,34,30,26,33,31,25,100,97,87,29.90,29.73,29.69,10,6,1,9,5,,0.10,8,Rain-Snow,8
2013-2-20,36,31,26,30,28,19,100,91,54,30.03,29.92,29.83,10,7,0,8,4,,0.00,6,Fog-Rain-Snow,239
2013-2-21,36,30,24,32,29,23,100,93,81,30.05,29.96,29.92,10,9,2,14,8,,0.01,7,Rain-Snow,189
2013-2-22,37,32,28,36,32,25,100,97,74,30.01,29.81,29.58,10,7,1,26,14,38,0.09,7,Rain-Snow,191
2013-2-23,41,34,25,29,25,23,93,78,57,30.25,29.93,29.67,10,10,10,22,16,29,0.00,2,Snow,224
2013-2-24,37,30,23,29,26,23,96,84,65,30.35,30.23,30.08,10,10,10,17,9,,0.00,5,,182
2013-2-25,39,34,29,33,30,23,100,89,65,30.14,29.91,29.84,10,7,1,23,13,34,0.05,7,Snow,205
2013-2-26,41,32,24,27,26,23,100,77,56,30.41,30.25,30.08,10,10,10,16,10,23,0.00,4,,190
2013-2-27,42,36,30,30,28,25,93,70,53,30.30,30.24,30.16,10,10,10,12,6,17,0.00,5,,192
2013-2-28,39,35,31,39,36,29,100,96,83,30.38,30.29,30.21,10,7,0,10,5,,0.14,8,Fog-Rain,114